sat.trackr.live / text

‹ back to catalog

STARLINK-30457

NORAD 57900 · 2023-146K

PAYLOAD ACTIVE UNKNOWN

§ Identity

Operator
Country
US
Launch date
2023-09-20
Launch site
AFETR
Launch vehicle
Mass (kg)
RCS (m²)

Purposes: comms

External: N2YO · Heavens-Above · Gunter

§ Orbital elements

Epoch: 2026-05-24T16:15:53.006112Z

Period
94.27 min
Inclination
43.0029°
Eccentricity
0.0001773
Mean motion
15.27576556 rev/d
Perigee alt
481.8 km
Apogee alt
484.3 km
Semi-major
6,861.2 km
B*
6.0584e-5
RAAN
245.3994°
Arg perigee
280.0010°
Mean anomaly
80.0642°
Rev number
14,761

§ Raw data

STARLINK-304571 57900U 23146K   26144.67769683  .00001405  00000+0  60584-4 0  99922 57900  43.0029 245.3994 0001773 280.0010  80.0642 15.27576556147614

JSON: /api/v1/satellites/57900 · /tle

For live sub-satellite position, see the globe view (requires WebGL).

§ Visibility from observer

Set your observer location to see the next 7 days of passes ≥ 10°. The values pass through the URL so the page stays shareable.

No JS? Fill the form by hand. The geolocation button needs JavaScript.